Location: Boiro
(42.6475°N, 8.8834°W)
Time: 15:54:52
(UTC+01:00)

Vanguard 2 - Pass Details

Date: 02 December 2021
Orbit: 553 x 2936 km, 32.9° (Epoch: 21 January)

Event Time Altitude Azimuth Distance (km) Brightness Sun altitude
Rises 16:29:51 0° 245° (WSW) 3,162 12.1 12.6°
Reaches altitude 10° 16:32:02 10° 237° (WSW) 2,427 12.2 12.3°
Maximum altitude 16:37:19 38° 170° (S) 1,615 9.8 11.6°
Drops below altitude 10° 16:45:33 10° 106° (ESE) 3,806 10.8 10.5°
Sets 16:49:51 0° 100° (E) 5,222 11.4 10.0°
